Weather History for EIKN - February, 2014

Change the Weather History Date:

Thursday, February 6, 2014

  Actual Average Record
Temperature  
Mean Temperature 39 °F -  
Max Temperature 42 °F - - ()
Min Temperature 36 °F - - ()
Degree Days  
Heating Degree Days 26    
Moisture  
Dew Point 36 °F    
Average Humidity 86    
Maximum Humidity 97    
Minimum Humidity 68    
Precipitation  
Precipitation 0.01 in - - ()
Sea Level Pressure  
Sea Level Pressure 29.08 in    
Wind  
Wind Speed 10 mph ()    
Max Wind Speed 18 mph    
Max Gust Speed -    
Visibility 8.9 miles    
Events Rain    
T = Trace of Precipitation, MM = Missing Value Source: Averaged Metar Reports

Daily Weather History Graph

Daily Weather History Graph

Search for Another Location

Airport or City:

Trip Planner

Search our weather history database for the weather conditions in past years. The results will help you decide how hot, cold, wet, or windy it might be!

Date:

Astronomy

Feb. 06, 2014 Rise Set
Actual Time 8:13 AM GMT 5:26 PM GMT
Civil Twilight 7:35 AM GMT 6:04 PM GMT
Nautical Twilight 6:53 AM GMT 6:46 PM GMT
Astronomical Twilight 6:12 AM GMT 7:27 PM GMT
Moon 10:48 AM GMT (2/6) 1:12 AM GMT (2/6)
Length of Visible Light 10h 29m
Length of Day
9h 13m
Waxing Crescent, 47% of the Moon is Illuminated
Feb 6
Waxing Crescent
Feb 6
First Quarter
Feb 14
Full
Feb 22
Last Quarter
Mar 1
New

Hourly Weather History & Observations

Time (GMT) Temp. Windchill Dew Point Humidity Pressure Visibility Wind Dir Wind Speed Gust Speed Precip Events Conditions
12:00 AM 42 °F - 41 °F 96% 28.92 in - WSW 17.9 mph - -  
1:00 AM 41 °F - 40 °F 93% 28.98 in - WSW 15.7 mph - -  
2:00 AM 41 °F - 39 °F 88% 29.00 in - West 15.7 mph - -  
3:00 AM 40 °F - 38 °F 91% 29.03 in - WSW 13.4 mph - -  
4:00 AM 40 °F - 39 °F 93% 29.05 in - WSW 15.7 mph - -  
5:00 AM 40 °F - 37 °F 85% 29.07 in - WSW 15.7 mph - -  
6:00 AM 39 °F - 38 °F 92% 29.09 in 16 mi WSW 13.4 mph - - Rain Light Rain Showers
6:00 AM 39.2 °F 31.2 °F 37.4 °F 93% 29.06 in 6.2 mi WSW 13.8 mph - N/A   Mostly Cloudy
7:00 AM 38 °F - 36 °F 90% 29.10 in 16 mi WSW 8.9 mph - -   Partly Cloudy
7:00 AM 37.4 °F 31.4 °F 35.6 °F 93% 29.06 in 6.2 mi WSW 8.1 mph - N/A   Scattered Clouds
8:00 AM 38 °F - 35 °F 86% 29.12 in 12 mi SW 8.9 mph - -   Partly Cloudy
8:00 AM 37.4 °F 31.4 °F 35.6 °F 93% 29.09 in 6.2 mi SW 8.1 mph - N/A   Scattered Clouds
8:30 AM 37.4 °F 30.8 °F 35.6 °F 93% 29.09 in 6.2 mi WSW 9.2 mph - N/A   Scattered Clouds
9:00 AM 37 °F - 34 °F 84% 29.13 in 19 mi SW 6.7 mph - -   Partly Cloudy
9:00 AM 37.4 °F 32.8 °F 33.8 °F 87% 29.09 in 6.2 mi SW 5.8 mph - N/A   Scattered Clouds
9:30 AM 39.2 °F 34.2 °F 33.8 °F 81% 29.09 in 6.2 mi SW 6.9 mph - N/A   Scattered Clouds
10:00 AM 38 °F - 35 °F 84% 29.13 in 22 mi South 6.7 mph - -   Scattered Clouds
10:00 AM 37.4 °F 32.8 °F 35.6 °F 93% 29.09 in 6.2 mi South 5.8 mph - N/A   Scattered Clouds
10:30 AM 39.2 °F 34.2 °F 35.6 °F 87% 29.09 in 6.2 mi South 6.9 mph - N/A   Scattered Clouds
11:00 AM 40 °F - 36 °F 79% 29.14 in 22 mi South 6.7 mph - -   Partly Cloudy
11:00 AM 41.0 °F 36.4 °F 35.6 °F 81% 29.09 in 6.2 mi South 6.9 mph - N/A   Scattered Clouds
11:30 AM 41.0 °F 35.8 °F 35.6 °F 81% 29.09 in 6.2 mi South 8.1 mph - N/A   Scattered Clouds
12:00 PM 42 °F - 36 °F 72% 29.13 in 22 mi SSW 8.9 mph - -   Partly Cloudy
12:00 PM 41.0 °F 35.2 °F 35.6 °F 81% 29.09 in 6.2 mi SSW 9.2 mph - N/A   Scattered Clouds
12:30 PM 41.0 °F 35.2 °F 37.4 °F 87% 29.09 in 6.2 mi SW 9.2 mph - N/A Rain Light Rain Showers
1:00 PM 42 °F - 36 °F 72% 29.12 in 16 mi SW 11.2 mph - - Rain Light Rain Showers
1:00 PM 41.0 °F 34.3 °F 35.6 °F 81% 29.09 in 6.2 mi SW 11.5 mph - N/A   Scattered Clouds
1:30 PM 42.8 °F 35.8 °F 35.6 °F 76% 29.06 in 6.2 mi SW 13.8 mph - N/A   Scattered Clouds
2:00 PM 42 °F - 35 °F 68% 29.10 in 19 mi SW 11.2 mph - -   Mostly Cloudy
2:00 PM 41.0 °F 34.7 °F 35.6 °F 81% 29.06 in 6.2 mi SW 10.4 mph - N/A   Mostly Cloudy
2:30 PM 41.0 °F 35.2 °F 35.6 °F 81% 29.06 in 6.2 mi SW 9.2 mph - N/A   Scattered Clouds
3:00 PM 41 °F - 36 °F 77% 29.09 in 22 mi WSW 11.2 mph - - Rain Light Rain Showers
3:00 PM 41.0 °F 34.7 °F 35.6 °F 81% 29.06 in 6.2 mi WSW 10.4 mph - N/A   Mostly Cloudy
3:30 PM 41.0 °F 35.2 °F 37.4 °F 87% 29.06 in 6.2 mi WSW 9.2 mph - N/A   Mostly Cloudy
4:00 PM 41 °F - 37 °F 79% 29.09 in 22 mi WSW 11.2 mph - -   Scattered Clouds
4:00 PM 41.0 °F 34.3 °F 37.4 °F 87% 29.06 in 6.2 mi WSW 11.5 mph - N/A   Mostly Cloudy
4:30 PM 41.0 °F 36.4 °F 37.4 °F 87% 29.06 in 6.2 mi West 6.9 mph - N/A   Mostly Cloudy
5:00 PM 40 °F - 38 °F 89% 29.10 in 10 mi West 8.9 mph - - Rain Light Rain Showers
5:00 PM 41.0 °F 35.2 °F 37.4 °F 87% 29.06 in 6.2 mi West 9.2 mph - N/A Rain Light Rain Showers
6:00 PM 38 °F - 36 °F 92% 29.11 in 12 mi WNW 8.9 mph - - Rain Light Rain Showers
7:00 PM 37 °F - 36 °F 95% 29.11 in 16 mi West 4.5 mph - -   Scattered Clouds
8:00 PM 36 °F - 35 °F 96% 29.12 in - WNW 6.7 mph - -  
9:00 PM 36 °F - 35 °F 97% 29.14 in - NNW 8.9 mph - -  
10:00 PM 36 °F - 35 °F 92% 29.14 in - WNW 6.7 mph - -  
11:00 PM 36 °F - 34 °F 91% 29.15 in - West 8.9 mph - -